Temp
-17 -17 -18 -17 -18 -18 -17 -18 -19 -18 -18 -18 -19 -18 -18 -18 -18 -18 -19 -19 -19 -18 -18 -19 -19 -19 -19 -19 -19 -20 -20 -20 -20 -21 -21 -21 -21 -22 -22 -21 -21 -21 -22 -22
-18 -18 -18 -18 -19 -18 -18 -18 -19 -19 -19 -19 -20 -20 -20 -19 -19 -19 -18 -19 -19 -19 -19 -19 -20 -20 -20 -20 -21 -22 -21 -21 -21 -21 -21 -22 -22 -22 -22 -22 -23 -23 -22 -22
-18 -18 -19 -19 -18 -18 -20 -20 -20 -20 -19 -20 -20 -21 -21 -20 -20 -20 -19 -19 -20 -20 -20 -20 -21 -21 -22 -22 -22 -22 -22 -22 -22 -23 -24 -24 -24 -25 -25 -24 -24 -24 -24 -24
-20 -21 -20 -18 -19 -19 -20 -20 -20 -21 -21 -22 -21 -21 -21 -20 -21 -21 -21 -21 -21 -21 -22 -22 -22 -22 -22 -23 -23 -23 -23 -23 -24 -24 -25 -25 -26 -26 -26 -26 -25 -25 -25 -24
-22 -22 -21 -21 -18 -20 -21 -21 -20 -20 -21 -22 -22 -22 -21 -22 -22 -22 -22 -22 -22 -22 -22 -22 -23 -23 -23 -23 -23 -23 -24 -25 -25 -25 -25 -26 -26 -26 -26 -26 -26 -26 -25 -25
-23 -22 -22 -21 -21 -20 -21 -21 -20 -21 -21 -22 -22 -22 -21 -22 -22 -22 -22 -22 -22 -22 -22 -23 -23 -23 -24 -24 -24 -24 -25 -25 -25 -26 -26 -26 -26 -26 -26 -26 -26 -26 -26 -26
-22 -23 -23 -22 -21 -21 -22 -21 -21 -21 -21 -21 -21 -21 -21 -22 -22 -22 -22 -22 -23 -23 -23 -24 -24 -24 -24 -24 -24 -25 -25 -25 -26 -26 -26 -26 -26 -26 -26 -26 -26 -27 -27 -27
-22 -23 -23 -23 -23 -23 -22 -21 -21 -22 -22 -22 -22 -21 -22 -22 -23 -23 -23 -23 -23 -24 -24 -24 -24 -24 -24 -25 -25 -25 -26 -26 -26 -26 -26 -26 -26 -26 -27 -26 -27 -27 -27 -27
-24 -24 -24 -23 -23 -23 -23 -22 -22 -22 -22 -23 -22 -22 -23 -23 -23 -23 -23 -24 -24 -24 -24 -25 -24 -24 -25 -25 -26 -26 -26 -26 -26 -26 -26 -26 -27 -27 -27 -27 -27 -27 -27 -27
-24 -23 -24 -25 -25 -25 -24 -24 -24 -23 -23 -23 -23 -23 -23 -23 -24 -24 -24 -25 -25 -25 -25 -24 -25 -25 -25 -26 -26 -26 -26 -26 -26 -26 -27 -27 -27 -27 -27 -27 -27 -27 -27 -27
-26 -25 -25 -25 -25 -25 -25 -24 -24 -24 -24 -23 -23 -23 -23 -24 -24 -24 -25 -25 -25 -25 -25 -25 -25 -25 -25 -26 -26 -26 -26 -26 -27 -27 -27 -27 -27 -27 -27 -27 -27 -27 -27 -27
-28 -28 -28 -26 -26 -27 -26 -25 -24 -25 -24 -24 -24 -24 -24 -24 -24 -24 -25 -24 -25 -25 -25 -25 -25 -25 -25 -26 -26 -27 -27 -27 -27 -27 -27 -28 -28 -28 -28 -28 -28 -27 -27 -27
-30 -30 -29 -29 -28 -27 -27 -27 -27 -25 -24 -25 -24 -24 -25 -24 -24 -25 -25 -24 -25 -25 -25 -25 -25 -25 -26 -27 -26 -26 -26 -27 -27 -27 -28 -28 -29 -29 -29 -29 -28 -28 -28 -27
-30 -30 -29 -28 -28 -28 -28 -28 -28 -27 -26 -25 -24 -25 -25 -25 -25 -25 -25 -25 -25 -25 -26 -25 -25 -26 -26 -26 -26 -26 -26 -27 -27 -28 -28 -29 -29 -29 -29 -28 -28 -28 -27 -27
-29 -29 -29 -29 -30 -30 -30 -29 -28 -28 -27 -26 -25 -25 -25 -25 -25 -25 -25 -26 -26 -26 -26 -25 -26 -26 -26 -26 -26 -26 -26 -27 -27 -27 -28 -28 -28 -29 -29 -28 -28 -28 -28 -28
-29 -30 -29 -30 -30 -30 -31 -30 -28 -28 -27 -26 -25 -24 -25 -25 -25 -25 -26 -26 -26 -26 -26 -26 -26 -26 -26 -26 -26 -26 -27 -27 -27 -27 -27 -28 -28 -28 -28 -28 -28 -28 -28 -28
-30 -30 -30 -30 -31 -30 -30 -29 -28 -27 -26 -26 -25 -25 -26 -25 -25 -26 -26 -26 -26 -26 -26 -26 -26 -26 -26 -26 -26 -27 -27 -27 -27 -27 -27 -28 -28 -28 -28 -28 -28 -28 -28 -29
-30 -31 -30 -30 -30 -29 -29 -29 -28 -26 -26 -25 -25 -25 -25 -25 -26 -26 -26 -26 -26 -26 -26 -26 -26 -26 -26 -26 -27 -27 -27 -28 -27 -27 -27 -28 -28 -28 -28 -28 -29 -29 -29 -29
-30 -31 -31 -30 -29 -29 -28 -28 -27 -27 -26 -26 -25 -25 -26 -26 -26 -26 -26 -26 -26 -26 -26 -26 -26 -26 -26 -26 -27 -27 -27 -27 -27 -27 -27 -27 -27 -27 -27 -27 -27 -28 -28 -28
-30 -30 -29 -29 -29 -29 -28 -28 -27 -27 -27 -26 -27 -26 -26 -26 -26 -26 -26 -26 -26 -26 -26 -27 -26 -26 -26 -27 -27 -27 -27 -26 -26 -26 -26 -26 -26 -26 -27 -27 -27 -27 -28 -28
-29 -28 -28 -28 -28 -28 -28 -27 -27 -27 -27 -27 -27 -27 -27 -26 -26 -26 -27 -27 -27 -27 -27 -27 -27 -26 -27 -27 -27 -27 -26 -26 -26 -26 -26 -26 -26 -27 -27 -27 -27 -27 -28 -28
-28 -28 -28 -28 -28 -28 -28 -28 -27 -27 -27 -27 -27 -27 -27 -27 -27 -27 -27 -27 -27 -27 -27 -27 -27 -27 -27 -27 -27 -27 -27 -27 -26 -26 -27 -27 -27 -27 -27 -27 -27 -27 -28 -28
-28 -28 -28 -29 -28 -28 -29 -28 -28 -28 -28 -27 -27 -27 -27 -27 -27 -27 -27 -27 -27 -27 -27 -27 -27 -27 -27 -27 -27 -27 -27 -27 -27 -27 -27 -27 -27 -27 -27 -27 -27 -28 -28 -28
-29 -29 -29 -29 -29 -29 -29 -29 -29 -29 -29 -29 -28 -28 -28 -28 -28 -28 -27 -27 -27 -27 -27 -27 -27 -27 -27 -27 -27 -27 -27 -27 -27 -27 -27 -27 -27 -27 -27 -28 -28 -28 -28 -28
-29 -29 -29 -29 -29 -29 -29 -29 -29 -28 -28 -28 -28 -28 -28 -28 -28 -28 -27 -27 -27 -27 -27 -27 -27 -27 -27 -27 -27 -27 -27 -27 -27 -27 -27 -27 -27 -27 -28 -28 -28 -28 -29 -29
-30 -30 -29 -29 -29 -29 -29 -29 -29 -29 -29 -28 -28 -28 -28 -28 -28 -28 -27 -27 -27 -27 -27 -28 -28 -28 -28 -27 -27 -27 -27 -27 -27 -27 -27 -27 -28 -28 -28 -28 -28 -29 -29 -29
-30 -30 -29 -29 -29 -29 -29 -29 -29 -29 -29 -28 -28 -28 -28 -28 -28 -28 -28 -27 -28 -28 -28 -28 -28 -28 -28 -27 -27 -27 -27 -27 -27 -27 -27 -28 -28 -28 -28 -28 -29 -29 -29 -29
Height
5594 5595 5596 5595 5600 5604 5605 5605 5602 5612 5609 5619 5615 5611 5607 5609 5610 5618 5618 5615 5614 5614 5612 5609 5607 5606 5604 5602 5601 5599 5597 5595 5591 5589 5588 5586 5584 5581 5579 5578 5577 5577 5575 5573
5575 5579 5580 5580 5585 5590 5591 5593 5591 5596 5600 5610 5604 5598 5596 5600 5602 5602 5603 5601 5603 5602 5601 5598 5597 5594 5592 5588 5587 5586 5583 5581 5578 5576 5574 5572 5569 5565 5564 5564 5563 5562 5563 5560
5564 5567 5562 5558 5577 5578 5578 5580 5582 5581 5590 5594 5589 5584 5584 5589 5591 5590 5589 5588 5585 5587 5587 5586 5584 5582 5581 5578 5575 5573 5570 5566 5564 5562 5560 5558 5556 5554 5552 5551 5551 5550 5550 5549
5547 5551 5538 5560 5569 5570 5565 5566 5568 5570 5576 5578 5576 5572 5573 5580 5579 5579 5578 5577 5575 5573 5573 5573 5573 5572 5570 5568 5565 5563 5560 5556 5553 5552 5550 5548 5546 5545 5543 5542 5540 5539 5538 5538
5530 5532 5533 5536 5557 5548 5547 5555 5557 5559 5564 5565 5563 5561 5567 5567 5566 5568 5567 5566 5565 5565 5564 5563 5562 5561 5560 5557 5555 5552 5549 5547 5546 5544 5542 5541 5539 5538 5536 5533 5531 5529 5527 5526
5519 5518 5520 5535 5539 5536 5535 5537 5543 5542 5549 5552 5548 5547 5558 5557 5555 5555 5555 5556 5556 5555 5555 5553 5551 5551 5550 5547 5545 5542 5541 5540 5538 5537 5535 5534 5532 5529 5527 5524 5521 5518 5516 5515
5505 5507 5510 5521 5520 5521 5520 5532 5529 5531 5534 5532 5532 5537 5542 5542 5542 5543 5543 5543 5543 5542 5542 5542 5542 5542 5540 5538 5535 5532 5531 5530 5529 5528 5527 5524 5522 5520 5517 5514 5512 5508 5505 5504
5489 5492 5496 5503 5505 5504 5504 5510 5515 5515 5518 5520 5523 5526 5527 5527 5529 5531 5530 5530 5529 5530 5530 5530 5531 5530 5529 5528 5526 5524 5523 5521 5520 5518 5516 5513 5511 5509 5507 5504 5502 5498 5495 5494
5472 5478 5483 5486 5487 5486 5487 5490 5493 5500 5502 5503 5508 5513 5514 5514 5515 5517 5518 5518 5518 5520 5520 5520 5520 5520 5519 5518 5517 5516 5514 5512 5510 5507 5504 5501 5499 5497 5495 5493 5491 5488 5485 5485
5456 5470 5468 5465 5464 5466 5470 5474 5477 5481 5489 5490 5494 5499 5502 5502 5504 5504 5505 5507 5508 5509 5510 5511 5511 5510 5509 5507 5506 5505 5503 5501 5498 5494 5491 5488 5485 5483 5482 5481 5480 5478 5476 5476
5437 5443 5444 5446 5449 5450 5447 5452 5459 5462 5469 5476 5479 5485 5486 5490 5492 5493 5494 5495 5498 5498 5499 5500 5501 5500 5499 5497 5496 5494 5491 5488 5484 5480 5476 5472 5470 5469 5468 5468 5468 5467 5467 5468
5412 5422 5414 5426 5430 5423 5425 5437 5439 5440 5450 5458 5463 5469 5471 5477 5478 5480 5482 5484 5485 5487 5489 5490 5490 5489 5488 5486 5484 5482 5478 5474 5469 5463 5458 5454 5452 5452 5453 5454 5455 5456 5457 5458
5394 5398 5396 5396 5401 5406 5409 5413 5413 5423 5433 5441 5447 5452 5459 5463 5466 5468 5471 5470 5473 5476 5478 5480 5481 5480 5478 5476 5472 5469 5464 5458 5452 5447 5441 5437 5437 5439 5442 5444 5447 5448 5449 5451
5384 5383 5381 5385 5385 5388 5386 5391 5397 5406 5414 5423 5430 5434 5443 5448 5454 5459 5461 5459 5463 5468 5470 5472 5471 5470 5469 5464 5461 5457 5450 5444 5439 5434 5430 5428 5429 5432 5435 5438 5440 5442 5443 5444
5377 5371 5372 5373 5371 5373 5373 5374 5381 5394 5399 5405 5413 5421 5428 5437 5443 5449 5448 5448 5456 5460 5461 5462 5462 5461 5458 5454 5451 5444 5440 5435 5430 5428 5425 5423 5424 5427 5429 5433 5435 5435 5436 5436
5361 5359 5358 5360 5360 5365 5364 5365 5373 5384 5386 5390 5396 5406 5415 5422 5431 5436 5437 5442 5449 5451 5452 5452 5453 5452 5447 5444 5440 5435 5432 5429 5426 5423 5421 5421 5422 5424 5425 5427 5428 5428 5428 5428
5348 5348 5348 5350 5355 5357 5357 5362 5369 5375 5378 5381 5386 5393 5402 5411 5417 5422 5430 5435 5439 5442 5442 5445 5444 5440 5438 5435 5431 5428 5426 5425 5423 5420 5419 5418 5418 5419 5420 5420 5420 5420 5420 5420
5344 5342 5343 5346 5352 5354 5358 5363 5368 5371 5374 5378 5380 5383 5394 5401 5409 5417 5421 5427 5431 5433 5435 5435 5431 5431 5429 5426 5423 5420 5419 5417 5416 5415 5413 5413 5413 5413 5413 5413 5413 5413 5413 5413
5347 5345 5345 5348 5352 5356 5358 5362 5365 5366 5370 5374 5381 5386 5391 5397 5402 5408 5415 5419 5422 5424 5424 5423 5423 5422 5419 5417 5415 5413 5410 5409 5407 5407 5406 5406 5406 5406 5406 5406 5406 5407 5407 5407
5351 5350 5350 5351 5354 5356 5358 5360 5364 5366 5369 5373 5377 5382 5388 5391 5396 5401 5405 5409 5412 5413 5414 5415 5414 5412 5410 5410 5409 5406 5404 5403 5402 5402 5402 5402 5402 5402 5402 5402 5403 5403 5403 5402
5355 5353 5353 5355 5356 5357 5360 5361 5362 5365 5369 5373 5374 5378 5382 5386 5391 5395 5397 5400 5401 5402 5404 5404 5406 5402 5403 5404 5402 5400 5399 5398 5398 5398 5398 5398 5398 5398 5398 5398 5398 5398 5398 5397
5356 5355 5355 5355 5355 5355 5356 5357 5358 5360 5362 5365 5368 5372 5376 5379 5382 5384 5386 5389 5391 5393 5393 5396 5398 5395 5396 5395 5394 5393 5393 5392 5393 5393 5393 5394 5394 5393 5393 5393 5392 5392 5392 5391
5354 5353 5352 5352 5353 5353 5353 5354 5354 5356 5358 5360 5362 5365 5367 5371 5373 5376 5379 5380 5382 5383 5385 5387 5387 5389 5388 5387 5385 5386 5386 5386 5387 5387 5388 5388 5388 5388 5388 5387 5386 5385 5384 5384
5349 5349 5348 5347 5347 5347 5349 5350 5351 5351 5352 5353 5355 5358 5360 5362 5365 5367 5369 5369 5372 5375 5378 5377 5378 5379 5379 5377 5377 5378 5379 5379 5380 5381 5382 5382 5382 5381 5381 5380 5379 5378 5377 5376
5346 5345 5345 5345 5344 5344 5344 5344 5343 5343 5344 5346 5348 5350 5352 5354 5355 5357 5359 5361 5363 5366 5366 5367 5367 5368 5368 5367 5368 5370 5371 5372 5373 5374 5374 5375 5375 5374 5373 5372 5371 5370 5368 5367
5343 5342 5342 5341 5341 5341 5340 5339 5338 5337 5337 5337 5338 5340 5342 5344 5346 5348 5350 5351 5352 5353 5354 5353 5354 5356 5357 5357 5359 5361 5363 5365 5365 5366 5366 5367 5366 5366 5365 5364 5363 5361 5360 5358
5337 5337 5336 5336 5335 5335 5335 5334 5333 5332 5331 5331 5331 5332 5332 5332 5334 5336 5337 5338 5338 5339 5340 5342 5344 5345 5347 5349 5351 5353 5355 5357 5358 5358 5358 5358 5357 5357 5356 5355 5354 5352 5351 5350
Wind_Speed
66 64 64 63 61 54 56 55 55 51 50 47 49 51 53 55 55 51 45 50 54 52 53 56 54 53 55 58 59 58 56 54 54 52 51 51 52 52 53 52 52 52 53 52
59 63 66 56 53 56 59 60 59 51 50 43 50 53 53 51 50 52 52 53 52 54 56 58 57 57 58 55 48 46 48 51 52 54 53 51 52 54 55 55 53 51 49 45
62 59 64 61 62 60 54 52 51 53 50 49 47 46 44 42 43 44 48 50 48 47 48 50 46 42 41 43 44 45 47 49 50 49 45 41 42 45 45 45 45 43 49 45
58 53 59 62 51 49 49 49 48 47 41 39 42 38 38 39 41 38 37 40 42 42 38 38 39 40 39 35 38 43 46 44 39 33 32 27 20 22 24 27 33 39 40 41
53 55 58 58 66 47 44 43 42 43 40 38 36 38 38 39 39 37 36 36 34 36 37 38 35 33 33 34 34 40 39 33 31 30 25 22 24 29 29 30 31 33 36 37
55 54 54 55 44 47 45 48 43 44 43 42 41 40 38 37 42 40 37 37 37 37 37 36 32 32 32 31 31 30 31 34 30 30 30 32 35 37 36 35 38 38 35 36
58 57 58 58 53 49 52 49 45 45 45 51 54 51 49 47 46 46 41 40 39 37 35 32 29 28 28 31 31 31 33 32 30 32 34 36 39 39 39 42 42 45 36 34
60 61 62 60 55 58 60 61 57 59 58 55 56 54 50 48 48 45 41 40 37 36 35 34 31 31 31 31 32 34 35 34 36 39 40 43 45 45 44 44 44 43 35 31
65 64 60 60 64 62 63 64 64 62 61 60 59 55 54 53 49 43 42 37 36 37 37 33 33 34 31 33 35 39 40 42 44 47 49 52 54 53 50 45 44 44 33 32
69 63 66 61 64 64 65 66 67 68 64 62 60 61 57 46 43 42 38 39 39 40 42 34 35 32 31 35 40 43 45 47 51 53 54 54 53 50 47 43 42 43 32 32
62 66 68 65 63 68 67 65 71 73 71 65 57 52 56 55 45 43 38 38 39 39 35 34 36 32 32 37 43 44 45 48 51 53 55 56 54 52 49 46 44 36 34 36
57 54 60 65 64 64 68 68 61 60 58 59 62 59 49 44 40 44 43 38 45 37 36 35 35 33 32 36 36 39 42 47 55 57 56 54 52 47 41 37 31 30 32 29
38 41 53 61 64 66 66 65 68 71 64 56 52 60 49 38 43 41 41 38 31 34 35 36 34 33 31 34 35 40 48 52 52 52 44 40 35 33 28 22 25 25 23 21
39 44 48 51 55 57 65 66 59 58 59 64 58 45 47 38 45 41 43 33 33 36 34 34 33 30 31 32 39 47 47 46 45 34 29 23 23 20 14 22 22 20 20 22
36 41 37 35 45 46 43 51 56 42 44 49 61 58 53 55 54 44 39 31 32 36 33 32 27 26 29 35 42 39 38 37 29 24 20 16 16 18 16 23 24 25 27 28
39 39 43 35 34 34 35 33 39 31 39 45 49 53 59 58 54 48 41 31 33 31 30 24 23 26 31 36 37 34 30 28 21 15 12 13 18 22 23 25 28 29 30 29
26 25 27 21 20 23 12 22 35 22 20 29 31 34 37 38 47 42 33 30 31 30 23 25 28 29 34 36 35 32 29 26 20 15 16 15 16 21 26 29 29 28 27 24
11 10 11 12 12 5 12 14 12 19 16 28 29 38 41 39 29 31 33 30 31 29 24 28 26 27 31 36 35 31 31 28 24 23 23 23 22 22 24 26 26 23 22 22
10 5 2 10 6 12 15 11 15 15 14 21 28 35 33 29 32 30 29 31 30 26 26 27 29 30 34 38 34 31 30 24 22 22 21 19 17 15 15 13 12 12 14 15
9 7 1 4 7 5 5 10 17 14 16 17 17 21 25 29 30 29 32 31 31 26 28 29 29 29 32 36 31 30 23 17 13 11 11 10 9 9 9 10 10 11 12 14
10 8 3 6 11 10 9 9 7 16 24 23 19 22 24 23 20 28 30 28 26 28 27 25 29 28 33 35 30 28 20 16 13 11 11 11 11 10 11 12 13 14 15 16
16 13 10 10 18 19 17 15 17 18 21 21 18 19 22 24 28 28 28 27 26 24 22 27 29 30 34 33 30 26 20 18 16 14 13 13 14 14 15 16 17 18 18 19
18 18 15 15 15 16 15 14 16 20 26 30 30 30 29 30 29 27 27 24 22 22 27 31 33 36 36 31 29 27 23 20 18 17 16 17 17 18 19 20 21 23 23 23
18 14 9 7 6 15 22 21 18 18 19 18 22 26 24 24 24 26 26 27 30 32 37 34 37 40 37 32 29 27 23 22 20 19 19 20 21 22 23 23 24 25 26 25
12 14 11 6 8 7 8 11 13 18 25 25 25 28 26 28 30 31 32 33 34 36 37 40 43 40 33 31 29 27 24 23 23 22 22 23 24 24 25 25 26 26 26 27
14 13 12 13 13 14 18 16 15 17 19 22 29 36 38 38 38 38 38 38 40 43 44 39 33 32 31 28 28 27 25 25 24 24 25 25 25 25 26 26 27 27 27 28
19 18 19 20 20 20 19 19 18 17 18 22 23 23 25 31 37 40 41 41 41 38 34 32 31 31 28 27 27 27 27 27 26 26 26 27 27 27 27 27 27 28 29 29
Wind_Direction
252 253 251 255 246 244 247 252 256 259 263 264 272 273 274 273 275 277 273 274 277 275 272 279 277 278 278 276 277 285 290 288 287 286 283 283 279 276 274 277 279 282 283 279
230 237 240 237 243 248 252 254 254 258 261 264 268 269 272 274 277 280 282 279 277 274 272 272 276 279 277 285 287 285 283 284 285 284 283 280 277 275 274 272 273 265 265 270
244 237 237 243 235 239 247 253 259 258 262 263 270 270 270 272 276 275 278 279 277 275 274 275 279 280 282 285 287 289 291 293 292 288 284 278 278 280 283 284 282 279 271 280
264 257 254 257 259 265 258 252 257 261 267 267 266 265 269 278 271 270 272 273 272 271 275 277 279 283 285 289 292 295 298 293 292 290 287 288 292 291 292 287 283 277 274 267
267 268 270 269 270 270 259 256 256 260 255 251 259 261 270 267 272 280 276 271 269 274 277 282 285 284 286 291 295 305 295 286 294 293 287 287 296 310 305 300 303 286 276 274
263 265 268 272 264 263 249 252 253 253 255 249 256 264 269 272 275 272 270 273 270 274 281 286 283 285 289 293 295 285 280 289 294 292 288 285 299 305 306 307 316 307 282 274
259 257 259 263 262 258 243 253 250 249 251 242 248 259 261 264 274 270 268 268 275 282 285 278 273 278 288 282 282 280 280 287 291 287 289 297 304 306 304 305 303 309 282 272
256 252 245 249 254 253 252 255 253 253 251 253 258 264 267 271 275 270 265 267 273 279 273 273 276 277 277 277 278 278 277 278 281 286 285 294 297 297 297 298 300 304 283 271
248 249 250 249 249 250 251 253 257 250 252 257 261 264 263 273 268 261 266 260 266 266 268 270 273 275 277 276 275 275 275 276 277 282 284 286 290 292 294 293 298 303 279 259
248 247 247 249 249 253 254 251 248 250 250 260 257 259 264 263 258 265 259 263 264 261 267 265 272 275 280 276 276 276 278 282 286 288 287 286 287 288 288 286 291 296 272 265
258 251 251 252 253 250 244 248 251 251 254 256 254 254 256 252 257 259 258 259 264 260 257 264 270 276 285 279 277 280 282 283 286 287 287 284 283 281 280 281 281 277 268 268
261 256 255 250 250 250 251 248 237 235 239 249 249 249 241 249 260 261 268 259 266 248 256 264 270 277 282 278 283 285 288 292 292 291 288 283 277 274 273 271 267 266 262 260
272 265 261 257 248 250 249 247 246 246 239 232 234 239 237 256 262 266 270 246 230 245 255 263 268 278 282 282 289 293 297 299 295 293 288 281 269 263 264 262 260 256 255 260
260 264 266 269 268 258 253 251 247 244 240 238 239 226 234 252 257 264 255 226 234 245 257 263 272 279 284 294 295 296 301 301 300 294 291 276 263 249 248 262 246 243 254 267
273 271 276 274 263 264 261 251 243 237 242 241 237 234 242 252 251 260 233 219 233 253 258 265 276 285 292 300 300 306 306 303 302 291 287 269 245 220 240 247 246 258 267 274
272 271 277 274 262 263 269 253 230 230 247 246 233 231 236 240 239 239 224 222 242 251 257 270 273 285 301 304 306 307 303 304 302 293 279 261 237 233 242 246 254 261 273 277
277 273 270 269 248 270 267 244 212 245 223 241 234 232 222 230 217 213 215 227 243 252 260 262 266 284 301 304 304 301 297 294 284 269 268 264 258 253 253 257 262 268 272 271
333 299 269 230 231 218 236 237 244 211 210 211 212 192 191 199 201 216 224 236 248 251 256 260 276 287 310 308 300 297 295 288 271 262 261 262 262 262 262 263 264 263 261 263
353 32 139 180 184 243 207 212 225 205 184 174 182 201 198 200 206 223 228 239 244 254 261 265 274 287 305 308 296 294 295 282 269 264 263 264 262 262 261 259 257 257 260 264
358 339 319 236 215 148 182 196 202 232 235 198 191 200 210 212 218 225 230 240 240 251 260 264 276 291 307 301 291 293 284 268 258 252 251 252 254 256 260 265 269 271 273 274
31 21 351 214 227 271 297 263 231 218 222 226 209 211 215 213 218 231 232 238 243 248 252 268 282 290 299 296 288 284 265 251 249 249 254 256 259 263 266 270 273 275 276 277
337 325 317 271 268 271 267 263 261 254 238 235 237 234 227 229 236 240 238 235 239 247 261 271 283 293 293 290 282 271 251 246 248 250 252 257 260 264 267 271 275 278 278 279
299 300 300 267 258 260 258 260 252 240 236 236 235 235 234 240 233 226 229 233 243 256 260 265 275 284 291 281 275 258 244 245 246 248 253 258 263 266 268 271 275 278 281 282
280 287 308 324 291 254 250 253 254 252 254 242 238 233 230 229 232 237 243 250 258 264 268 271 281 280 282 274 265 247 241 244 247 250 255 260 265 269 272 274 275 279 281 283
307 270 278 289 294 295 297 291 274 264 260 255 247 240 241 245 246 250 256 260 261 264 270 272 275 276 267 266 251 240 240 244 248 254 259 264 269 273 275 276 277 278 279 281
288 290 281 279 284 292 300 302 294 272 262 255 252 250 249 250 252 256 259 261 264 270 273 267 257 257 261 253 239 239 242 244 250 256 263 269 273 276 277 278 278 279 279 280
286 283 282 282 284 285 285 297 297 284 265 257 255 257 256 252 250 253 258 262 264 264 259 253 253 253 249 238 235 240 244 249 254 260 267 271 274 278 280 280 279 279 279 280